Release Notes

Autopilot Maximum Speed

Autopilot's maximum speed has been increased from 80 mph to 85 mph. Please continue to remain attentive and ready to take over while using Autopilot features.

Driver Profiles

Media Player accounts (e.g. Spotify login) are now linked to your driver profile. Simply log into your media account while your driver profile is selected.

Navigation Energy Prediction

Energy prediction for your route has been improved by incorporating forecasted crosswind, headwind, humidity, and ambient temperature when using online navigation.

Show More

Models

Which models received this update.

Model S 90
Legacy 51
Refresh 39
Model 3 448
Model X 53
Legacy 37
Refresh 16
Model Y 195

Countries

The regions that we've detected this update.

United States 507
Australia 186
Canada 59
New Zealand 7
Ukraine 6
Russia 5
Taiwan 5
Mexico 2
Hong Kong SAR China 2
Lithuania 2
Bulgaria 1
Belarus 1
South Korea 1
Moldova 1
Armenia 1

Days

The daily rollout of this update.

July 20, 2022 1
July 19, 2022 1
July 4, 2022 1
June 29, 2022 3
June 28, 2022 11
June 27, 2022 7
June 26, 2022 6
June 25, 2022 11
June 24, 2022 28
June 23, 2022 61
June 22, 2022 101
June 21, 2022 148
June 20, 2022 131
June 19, 2022 15
June 18, 2022 75
June 17, 2022 145
June 16, 2022 41

Previous Update

Which update did vehicles originate from.

Update History

The historical record of all vehicles that received this update.

Time Previous Version Model HW Country
2022-07-20 14:18 2021.4.3 Model X Performance (20XX) 3.0 United States
2022-07-19 10:51 2022.4.5.3 Model S 100D (20XX) 2.5 Russia
2022-07-04 02:58 2022.12.3.16 Model 3 AWD LR (20XX) 3.0 United States
2022-06-29 08:31 2022.16.1.1 Model 3 SR (20XX) 3.0 Australia
2022-06-29 07:04 2022.12.3.2 Model 3 SR+ (20XX) 3.0 Taiwan
2022-06-29 02:19 2022.12.3.2 Model 3 AWD LR (20XX) 3.0 United States
2022-06-28 23:42 2022.12.3.2 Model Y Performance (20XX) 3.0 Canada
2022-06-28 19:25 2022.12.3.3 Model S Plaid (20XX) 2.5 United States
2022-06-28 17:03 2022.12.3.12 Model Y AWD LR (20XX) 3.0 United States
2022-06-28 11:46 2022.12.3.2 Model 3 AWD LR (20XX) 3.0 South Korea
2022-06-28 09:46 2022.12.3.16 Model S Long Range (20XX) 3.0 United States
2022-06-28 05:42 2022.12.3.2 Model 3 AWD LR (20XX) 3.0 United States
2022-06-28 05:01 2022.12.3.7.5 Model 3 SR+ (20XX) 3.0 Australia
2022-06-28 04:54 2022.12.3.2 Model Y SR (20XX) 3.0 United States
2022-06-28 04:18 2022.16.1.1 Model 3 SR (20XX) 2.5 United States
2022-06-28 02:50 2022.12.3.16 Model 3 AWD LR (20XX) 3.0 United States
2022-06-28 01:13 2022.12.3.16 Model Y AWD LR (20XX) 3.0 United States
2022-06-27 20:43 2022.12.3.2 Model Y AWD LR (20XX) 3.0 United States
2022-06-27 17:07 2022.16.1.1 Model 3 AWD LR (20XX) 3.0 Australia
2022-06-27 15:25 2022.16.1.1 Model 3 RWD LR (20XX) 2.5 United States
2022-06-27 06:02 2022.16.1.1 Model 3 AWD LR (20XX) 3.0 Russia
2022-06-27 02:14 2022.4.5.4 Model Y AWD LR (20XX) 3.0 Canada
2022-06-27 01:01 2022.12.3.16 Model 3 Mid-Range (20XX) 3.0 United States
2022-06-27 00:45 2022.12.3.16 Model X 100D (20XX) 2.5 United States
2022-06-26 17:57 2022.12.3.12 Model Y AWD LR (20XX) 3.0 United States
2022-06-26 14:10 2022.12.3.2 Model 3 RWD LR (20XX) 2.5 Russia
2022-06-26 11:28 2022.16.1.1 Model 3 AWD LR (20XX) 3.0 United States
2022-06-26 06:47 2022.16.1.1 Model 3 AWD LR (20XX) 3.0 United States
2022-06-26 06:19 2022.12.3.16 Model 3 SR (20XX) 3.0 United States
2022-06-26 01:46 2022.12.3.12 Model 3 AWD LR (20XX) 2.5 United States
2022-06-25 21:15 2022.12.3.2 Model 3 Performance (20XX) 3.0 United States
2022-06-25 18:01 2022.12.3.2 Model Y AWD LR (20XX) 3.0 United States
2022-06-25 17:33 2022.12.3.12 Model 3 AWD LR (20XX) 3.0 United States
2022-06-25 16:46 2022.12.3.12 Model X Long Range (20XX) 3.0 United States
2022-06-25 16:40 2022.12.3.12 Model Y AWD LR (20XX) 3.0 United States
2022-06-25 14:48 2022.12.3.3 Model 3 SR+ (20XX) 3.0 Australia
2022-06-25 07:33 2022.12.3.2 Model Y AWD LR (20XX) 2.5 United States
2022-06-25 06:30 2022.12.3.12 Model 3 AWD LR (20XX) 3.0 United States
2022-06-25 03:56 2022.12.3.12 Model 3 Performance (20XX) 3.0 United States
2022-06-25 02:06 2022.11.101.5 Model X Plaid (20XX) 3.0 United States
2022-06-25 00:03 2022.12.3.12 Model 3 AWD LR (20XX) 2.5 United States
2022-06-24 23:24 2022.12.3.12 Model 3 AWD LR (20XX) 2.5 United States
2022-06-24 23:21 2021.44.30.7 Model X 100D (20XX) 3.0 United States
2022-06-24 23:04 2022.12.3.16 Model 3 AWD LR (20XX) 2.5 United States
2022-06-24 22:56 2022.12.3.2 Model 3 AWD LR (20XX) 2.5 Canada
2022-06-24 22:43 2022.16.1.1 Model Y SR (20XX) 3.0 Canada
2022-06-24 22:36 2022.12.3.12 Model Y Performance (20XX) 3.0 United States
2022-06-24 20:41 2022.12.3.2 Model Y AWD LR (20XX) 2.5 Canada
2022-06-24 19:40 2022.4.5.3 Model X 75D (20XX) 3.0 United States
2022-06-24 14:46 2022.16.1.1 Model Y AWD LR (20XX) 3.0 United States
2022-06-24 14:19 2022.12.3.16 Model S Performance (20XX) 3.0 United States
2022-06-24 13:30 2022.12.3.2 Model 3 AWD LR (20XX) 2.5 United States
2022-06-24 12:43 2022.12.3.2 Model Y Performance (20XX) 3.0 United States
2022-06-24 12:39 2022.12.3.2 Model 3 AWD LR (20XX) 3.0 United States
2022-06-24 09:02 2022.16.1.1 Model Y AWD LR (20XX) 3.0 United States
2022-06-24 08:56 2022.12.3.2 Model 3 SR (20XX) 2.5 Australia
2022-06-24 08:38 2022.12.3.12 Model 3 AWD LR (20XX) 3.0 United States
2022-06-24 07:58 2022.12.3.2 Model 3 SR (20XX) 2.5 United States
2022-06-24 06:20 2022.12.3.12 Model Y AWD LR (20XX) 3.0 United States
2022-06-24 04:55 2022.12.3.2 Model 3 AWD LR (20XX) 2.5 United States
2022-06-24 03:56 2022.12.3.12 Model 3 SR+ (20XX) 2.5 Canada
2022-06-24 03:49 2022.12.3.2 Model 3 Performance (20XX) 3.0 United States
2022-06-24 02:45 2022.12.3.12 Model Y AWD LR (20XX) 3.0 United States
2022-06-24 02:26 2022.12.3.2 Model 3 RWD LR (20XX) 2.5 United States
2022-06-24 01:31 2022.16.1.1 Model Y Performance (20XX) 3.0 United States
2022-06-24 01:18 2022.12.3.2 Model 3 Performance (20XX) 3.0 United States
2022-06-24 01:13 2022.12.3.12 Model Y AWD LR (20XX) 3.0 United States
2022-06-24 01:12 2022.12.3.2 Model 3 SR (20XX) 3.0 Canada
2022-06-24 00:58 2022.12.3.2 Model Y AWD LR (20XX) 3.0 United States
2022-06-23 23:34 2022.12.3.12 Model Y AWD LR (20XX) 2.5 United States
2022-06-23 23:30 2022.12.3.2 Model 3 SR+ (20XX) 3.0 Canada
2022-06-23 23:03 2022.12.3.16 Model 3 AWD LR (20XX) 3.0 United States
2022-06-23 21:41 2022.12.3.12 Model 3 Performance (20XX) 3.0 United States
2022-06-23 21:35 2022.12.3.16 Model 3 AWD LR (20XX) 3.0 United States
2022-06-23 21:15 2022.12.3.12 Model 3 Performance (20XX) 3.0 United States
2022-06-23 21:13 2022.12.3.16 Model 3 AWD LR (20XX) 3.0 Canada
2022-06-23 19:51 2022.12.3.2 Model Y AWD LR (20XX) 3.0 United States
2022-06-23 19:48 2022.11.101.1 Model Y (20XX) 3.0 United States
2022-06-23 18:34 2022.12.3.2 Model 3 AWD LR (20XX) 3.0 United States
2022-06-23 18:21 2022.16.1.1 Model 3 SR (20XX) 2.5 Australia
2022-06-23 17:38 2022.12.3.16 Model Y Performance (20XX) 3.0 United States
2022-06-23 17:13 2022.12.3.5 Model Y AWD LR (20XX) 3.0 United States
2022-06-23 15:33 2022.4.5.5 Model Y Performance (20XX) 3.0 United States
2022-06-23 15:00 2022.12.3.5 Model S Long Range (20XX) 3.0 United States
2022-06-23 14:20 2022.12.3.2 Model 3 AWD LR (20XX) 3.0 United States
2022-06-23 14:19 2021.44.30.7 Model Y AWD LR (20XX) 3.0 United States
2022-06-23 13:06 2022.12.3.2 Model 3 Performance (20XX) 2.5 Australia
2022-06-23 12:48 2022.12.3.2 Model Y AWD LR (20XX) 3.0 United States
2022-06-23 11:08 2022.12.3.12 Model Y AWD LR (20XX) 3.0 United States
2022-06-23 10:58 2022.16.1.1 Model 3 AWD LR (20XX) 3.0 United States
2022-06-23 09:42 2022.12.3.16 Model 3 Performance (20XX) 3.0 United States
2022-06-23 09:29 2022.12.3.2 Model 3 SR (20XX) 3.0 Canada
2022-06-23 09:12 2022.12.3.2 Model 3 SR (20XX) 2.5 Australia
2022-06-23 07:56 2022.12.3.2 Model 3 SR (20XX) 2.5 Australia
2022-06-23 07:37 2022.12.3.12 Model 3 Performance (20XX) 3.0 United States
2022-06-23 07:30 2022.12.3.12 Model Y Performance (20XX) 3.0 United States
2022-06-23 07:03 2022.12.3.5 Model 3 Performance (20XX) 2.5 Ukraine
2022-06-23 06:44 2022.16.1.1 Model 3 AWD LR (20XX) 3.0 Australia
2022-06-23 06:42 2022.12.3.16 Model 3 AWD LR (20XX) 3.0 United States
2022-06-23 06:30 2022.12.3.16 Model 3 AWD LR (20XX) 3.0 United States
2022-06-23 05:47 2022.16.1.1 Model 3 Performance (20XX) 2.5 United States
2022-06-23 04:56 2022.12.3.12 Model 3 AWD LR (20XX) 3.0 United States
2022-06-23 04:34 2022.12.3.2 Model 3 SR+ (20XX) 3.0 Australia
2022-06-23 04:11 2022.12.3.2 Model Y AWD LR (20XX) 3.0 United States
2022-06-23 03:38 2022.12.3.12 Model Y AWD LR (20XX) 3.0 United States
2022-06-23 03:29 2022.12.3.2 Model 3 AWD LR (20XX) 3.0 United States
2022-06-23 03:08 2022.12.3.2 Model 3 SR (20XX) 3.0 United States
2022-06-23 02:52 2022.16.1.1 Model 3 SR (20XX) 3.0 United States
2022-06-23 02:52 2022.16.1.1 Model 3 SR+ (20XX) 2.5 United States
2022-06-23 02:47 2022.12.3.2 Model S P85+ (20XX) 0.0 United States
2022-06-23 02:41 2022.16.1.1 Model 3 SR+ (20XX) 3.0 United States
2022-06-23 02:29 2022.12.3.16 Model 3 SR+ (20XX) 3.0 United States
2022-06-23 02:07 2022.12.3.16 Model 3 RWD LR (20XX) 2.5 United States
2022-06-23 01:59 2022.16.1.1 Model 3 Performance (20XX) 3.0 United States
2022-06-23 01:55 2022.12.3.16 Model Y AWD LR (20XX) 3.0 United States
2022-06-23 01:45 2022.12.3.16 Model Y AWD LR (20XX) 2.5 United States
2022-06-23 01:27 2022.12.3.2 Model Y AWD LR (20XX) 2.5 United States
2022-06-23 01:24 2021.44.30.11 Model 3 SR (20XX) 2.5 Australia
2022-06-23 01:19 2022.16.1.1 Model Y AWD LR (20XX) 3.0 Canada
2022-06-23 01:13 2022.12.3.2 Model Y AWD LR (20XX) 3.0 United States
2022-06-23 00:53 2022.12.3.16 Model 3 SR (20XX) 3.0 United States
2022-06-23 00:48 2022.12.3.16 Model Y AWD LR (20XX) 3.0 United States
2022-06-23 00:47 2022.12.3.16 Model 3 Performance (20XX) 2.5 United States
2022-06-23 00:42 2022.12.3.2 Model Y AWD LR (20XX) 3.0 Canada
2022-06-23 00:41 2022.12.3.16 Model 3 Performance (20XX) 2.5 United States
2022-06-23 00:38 2022.12.3.16 Model 3 AWD LR (20XX) 3.0 United States
2022-06-23 00:28 2022.16.1.1 Model Y AWD LR (20XX) 3.0 United States
2022-06-23 00:25 2022.16.1.1 Model 3 Performance (20XX) 3.0 Australia
2022-06-23 00:15 2022.12.3.16 Model 3 Performance (20XX) 3.0 United States
2022-06-23 00:06 2022.12.3.2 Model 3 AWD LR (20XX) 3.0 United States
2022-06-22 23:29 2022.12.3.2 Model 3 SR (20XX) 2.5 United States
2022-06-22 23:22 2022.12.3.2 Model 3 AWD LR (20XX) 2.5 United States
2022-06-22 23:19 2022.12.3.16 Model 3 SR+ (20XX) 2.5 United States
2022-06-22 22:53 2022.12.3.12 Model 3 Performance (20XX) 2.5 United States
2022-06-22 22:51 2022.12.3.16 Model 3 AWD LR (20XX) 3.0 United States
2022-06-22 22:00 2022.12.3.2 Model S 100D (20XX) 3.0 United States
2022-06-22 21:52 2022.12.3.12 Model Y AWD LR (20XX) 2.5 United States
2022-06-22 21:46 2022.12.3.2 Model Y AWD LR (20XX) 2.5 United States
2022-06-22 21:43 2022.12.3.12 Model 3 AWD LR (20XX) 3.0 United States
2022-06-22 21:15 2022.16.1.1 Model 3 AWD LR (20XX) 3.0 United States
2022-06-22 21:13 2022.12.3.2 Model 3 Performance (20XX) 2.5 United States
2022-06-22 20:47 2022.12.3.2 Model 3 SR (20XX) 2.5 Australia
2022-06-22 20:43 2022.12.3.2 Model Y AWD LR (20XX) 3.0 United States
2022-06-22 20:39 2022.12.3.2 Model Y AWD LR (20XX) 2.5 United States
2022-06-22 20:39 2022.12.3.2 Model Y AWD LR (20XX) 3.0 United States
2022-06-22 20:32 2022.4 Model X 100D (20XX) 3.0 United States
2022-06-22 20:29 2022.12.3.2 Model 3 SR (20XX) 2.5 United States
2022-06-22 19:28 2022.12.3.2 Model 3 SR+ (20XX) 3.0 United States
2022-06-22 18:54 2022.12.3.12 Model 3 AWD LR (20XX) 3.0 United States
2022-06-22 18:50 2022.12.3.12 Model 3 AWD LR (20XX) 3.0 United States
2022-06-22 18:43 2022.12.3.12 Model Y AWD LR (20XX) 3.0 United States
2022-06-22 17:47 2022.12.3.12 Model Y AWD LR (20XX) 3.0 United States
2022-06-22 17:44 2022.16.1.1 Model Y AWD LR (20XX) 3.0 United States
2022-06-22 17:33 2022.16.1.1 Model Y AWD LR (20XX) 3.0 Canada
2022-06-22 17:17 2022.16.1.1 Model 3 AWD LR (20XX) 3.0 United States
2022-06-22 16:44 2022.12.3.12 Model S Long Range (20XX) 3.0 United States
2022-06-22 15:50 2022.16.1.1 Model 3 SR+ (20XX) 2.5 United States
2022-06-22 15:33 2022.12.3.16 Model Y AWD LR (20XX) 3.0 United States
2022-06-22 15:29 2022.16.1.1 Model S Plaid (20XX) 3.0 United States
2022-06-22 14:29 2022.12.3.2 Model 3 (20XX) 3.0 United States
2022-06-22 14:23 2022.12.3.12 Model 3 Performance (20XX) 3.0 United States
2022-06-22 13:47 2022.12.3.2 Model 3 Performance (20XX) 3.0 United States
2022-06-22 13:40 2022.16.1.1 Model 3 Performance (20XX) 2.5 United States
2022-06-22 13:33 2022.12.3.16 Model 3 AWD LR (20XX) 2.5 United States
2022-06-22 12:43 2022.12.3.2 Model Y AWD LR (20XX) 2.5 United States
2022-06-22 12:39 2022.16.1.1 Model Y Performance (20XX) 3.0 Canada
2022-06-22 12:15 2022.16.1.1 Model Y AWD LR (20XX) 3.0 Canada
2022-06-22 11:59 2022.12.3.16 Model 3 AWD LR (20XX) 3.0 United States
2022-06-22 11:28 2022.12.3.12 Model Y AWD LR (20XX) 2.5 United States
2022-06-22 11:10 2022.12.3.2 Model 3 SR (20XX) 3.0 Australia
2022-06-22 10:16 2022.16.1.1 Model Y AWD LR (20XX) 2.5 United States
2022-06-22 09:23 2022.16.1.1 Model 3 SR (20XX) 3.0 United States
2022-06-22 08:49 2022.16.1.1 Model 3 Performance (20XX) 2.5 Australia
2022-06-22 08:34 2022.16.1.1 Model 3 Performance (20XX) 2.5 Australia
2022-06-22 08:30 2022.12.3.3 Model Y AWD LR (20XX) 3.0 United States
2022-06-22 08:11 2022.16.1.1 Model Y AWD LR (20XX) 3.0 United States
2022-06-22 08:01 2022.12.3.6 Model 3 SR (20XX) 3.0 Australia
2022-06-22 07:36 2022.12.3.16 Model 3 Performance (20XX) 3.0 Australia
2022-06-22 07:32 2022.12.3.2 Model 3 SR (20XX) 3.0 United States
2022-06-22 07:27 2022.16.1.1 Model 3 AWD LR (20XX) 2.5 Australia
2022-06-22 07:03 2022.16.1.1 Model 3 AWD LR (20XX) 3.0 Hong Kong SAR China
2022-06-22 06:42 2022.16.1.1 Model Y AWD LR (20XX) 3.0 United States
2022-06-22 06:39 2022.12.3.2 Model S Performance (20XX) 3.0 United States
2022-06-22 06:37 2022.12.3.2 Model Y AWD LR (20XX) 3.0 United States
2022-06-22 06:37 2022.12.3.12 Model Y Performance (20XX) 3.0 United States
2022-06-22 05:21 2022.12.3.2 Model 3 Performance (20XX) 3.0 Australia
2022-06-22 05:09 2022.16.1.1 Model 3 RWD LR (20XX) 3.0 United States
2022-06-22 04:45 2022.16.1.1 Model 3 AWD LR (20XX) 3.0 Australia
2022-06-22 04:41 2022.16.1.1 Model Y AWD LR (20XX) 3.0 United States
2022-06-22 03:57 2022.12.3.2 Model Y SR (20XX) 3.0 United States
2022-06-22 03:53 2022.16.1.1 Model Y AWD LR (20XX) 2.5 United States
2022-06-22 03:51 2022.16.1.1 Model 3 Performance (20XX) 3.0 Canada
2022-06-22 03:43 2022.16.1.1 Model 3 SR (20XX) 3.0 Australia
2022-06-22 03:40 2022.16.1.1 Model 3 SR (20XX) 2.5 Australia
2022-06-22 03:37 2022.12.3.2 Model 3 Performance (20XX) 3.0 Australia
2022-06-22 03:20 2022.16.1.1 Model S 75 (20XX) 3.0 United States
2022-06-22 03:16 2022.12.3.16 Model 3 Performance (20XX) 3.0 United States
2022-06-22 03:04 2022.12.3.2 Model 3 AWD LR (20XX) 3.0 United States
2022-06-22 02:57 2022.12.3.12 Model 3 SR (20XX) 3.0 United States
2022-06-22 02:50 2022.12.3.2 Model Y Performance (20XX) 2.5 United States
2022-06-22 02:45 2022.16.1.1 Model Y AWD LR (20XX) 3.0 United States
2022-06-22 02:31 2022.16.1.1 Model Y AWD LR (20XX) 3.0 United States
2022-06-22 02:22 2022.16.1.1 Model 3 SR (20XX) 2.5 Australia
2022-06-22 02:19 2022.12.3.2 Model 3 AWD LR (20XX) 3.0 United States
2022-06-22 02:15 2022.16.1.1 Model 3 SR (20XX) 3.0 United States
2022-06-22 02:05 2022.12.3.2 Model Y AWD LR (20XX) 3.0 United States
2022-06-22 02:05 2022.16.1.1 Model Y AWD LR (20XX) 3.0 United States
2022-06-22 01:43 2022.16.1.1 Model 3 SR+ (20XX) 3.0 Taiwan
2022-06-22 01:42 2022.12.3.16 Model 3 Mid-Range (20XX) 2.5 Canada
2022-06-22 01:38 2022.16.1.1 Model 3 AWD LR (20XX) 3.0 United States
2022-06-22 01:38 2022.16.1.1 Model Y AWD LR (20XX) 2.5 United States
2022-06-22 01:26 2022.12.3.16 Model 3 RWD LR (20XX) 2.5 United States
2022-06-22 01:22 2022.12.3.2 Model 3 SR+ (20XX) 2.5 Canada
2022-06-22 01:04 2022.12.3.2 Model Y AWD LR (20XX) 2.5 United States
2022-06-22 01:03 2022.12.3.16 Model S 75 (20XX) 3.0 United States
2022-06-22 01:01 2022.12.3.2 Model 3 AWD LR (20XX) 3.0 United States
2022-06-22 00:55 2022.12.3.20 Model Y Performance (20XX) 3.0 United States
2022-06-22 00:54 2022.12.3.2 Model 3 AWD LR (20XX) 3.0 Australia
2022-06-22 00:35 2022.12.3.2 Model 3 SR (20XX) 3.0 Australia
2022-06-22 00:33 2022.12.3.12 Model Y AWD LR (20XX) 3.0 United States
2022-06-22 00:28 2022.12.3.16 Model 3 RWD LR (20XX) 2.5 United States
2022-06-22 00:24 2022.12.3.16 Model Y AWD LR (20XX) 3.0 United States
2022-06-22 00:22 2022.12.3.2 Model Y SR (20XX) 3.0 United States
2022-06-22 00:22 2022.16.1.1 Model 3 SR (20XX) 3.0 United States
2022-06-22 00:21 2022.16.1.1 Model Y AWD LR (20XX) 3.0 United States
2022-06-22 00:18 2022.12.3.12 Model Y AWD LR (20XX) 3.0 United States
2022-06-22 00:12 2022.16.1.1 Model 3 AWD LR (20XX) 3.0 United States
2022-06-22 00:09 2022.16.1.1 Model Y AWD LR (20XX) 3.0 United States
2022-06-22 00:07 2022.12.3.12 Model Y AWD LR (20XX) 3.0 United States
2022-06-22 00:04 2022.12.3.12 Model Y Performance (20XX) 3.0 United States
2022-06-22 00:01 2022.12.3.2 Model Y AWD LR (20XX) 3.0 United States
2022-06-21 23:57 2022.12.3.12 Model Y AWD LR (20XX) 3.0 United States
2022-06-21 23:55 2022.12.3.12 Model 3 AWD LR (20XX) 3.0 United States
2022-06-21 23:54 2022.16.1.1 Model Y AWD LR (20XX) 3.0 United States
2022-06-21 23:54 2022.12.3.3 Model 3 AWD LR (20XX) 3.0 United States
2022-06-21 23:46 2022.12.3.12 Model Y AWD LR (20XX) 3.0 United States
2022-06-21 23:41 2022.12.3.2 Model 3 Performance (20XX) 3.0 Australia
2022-06-21 23:35 2022.12.3.2 Model 3 Performance (20XX) 3.0 United States
2022-06-21 23:31 2022.12.3.16 Model Y AWD LR (20XX) 3.0 United States
2022-06-21 23:24 2022.12.3.12 Model Y AWD LR (20XX) 3.0 United States
2022-06-21 23:16 2022.12.3.16 Model 3 SR (20XX) 2.5 Canada
2022-06-21 23:15 2022.16.1.1 Model 3 AWD LR (20XX) 3.0 Australia
2022-06-21 23:10 2022.12.3.2 Model Y AWD LR (20XX) 3.0 United States
2022-06-21 23:10 2022.16.1.1 Model Y AWD LR (20XX) 3.0 United States
2022-06-21 23:09 2022.12.3.2 Model 3 SR (20XX) 3.0 United States
2022-06-21 23:09 2022.12.3.2 Model 3 SR (20XX) 2.5 United States
2022-06-21 23:08 2022.16.1.1 Model 3 AWD LR (20XX) 3.0 United States
2022-06-21 23:03 2022.16.1.1 Model 3 AWD LR (20XX) 3.0 United States
2022-06-21 23:03 2022.16.1.1 Model 3 SR+ (20XX) 3.0 Canada
2022-06-21 23:01 2022.16.1.1 Model 3 AWD LR (20XX) 3.0 Canada
2022-06-21 23:00 2022.12.3.2 Model Y AWD LR (20XX) 3.0 United States
2022-06-21 22:59 2022.12.3.12 Model Y AWD LR (20XX) 3.0 United States
2022-06-21 22:58 2022.16.1.1 Model Y AWD LR (20XX) 3.0 United States
2022-06-21 22:57 2022.12.3.12 Model Y AWD LR (20XX) 3.0 Canada
2022-06-21 22:55 2022.12.3.2 Model 3 Performance (20XX) 3.0 Australia
2022-06-21 22:55 2022.12.3.2 Model 3 SR+ (20XX) 3.0 New Zealand
2022-06-21 22:55 2022.16.1.1 Model 3 SR+ (20XX) 3.0 United States
2022-06-21 22:53 2022.16.1.1 Model Y AWD LR (20XX) 3.0 United States
2022-06-21 22:46 2022.12.3.12 Model Y Performance (20XX) 3.0 United States
2022-06-21 22:46 2022.11.101.6 Model 3 AWD LR (20XX) 3.0 United States
2022-06-21 22:45 2022.16.1.1 Model Y AWD LR (20XX) 3.0 United States
2022-06-21 22:38 2022.16.1.1 Model S P85D (20XX) 0.0 United States
2022-06-21 22:38 2022.16.1.1 Model Y AWD LR (20XX) 3.0 United States
2022-06-21 22:35 2022.16.1.1 Model Y AWD LR (20XX) 3.0 United States
2022-06-21 22:31 2022.12.3.2 Model Y Performance (20XX) 3.0 United States
2022-06-21 22:30 2022.12.3.2 Model 3 SR+ (20XX) 2.5 United States
2022-06-21 22:15 2022.16.1.1 Model 3 SR+ (20XX) 3.0 Australia
2022-06-21 21:50 2022.12.3.2 Model Y SR (20XX) 3.0 Canada
2022-06-21 21:16 2022.12.3.12 Model 3 SR (20XX) 3.0 United States
2022-06-21 20:59 2022.16.1.1 Model Y Performance (20XX) 3.0 United States
2022-06-21 20:31 2022.12.3.12 Model Y Performance (20XX) 3.0 United States
2022-06-21 20:25 2022.12.3.16 Model X 90D (20XX) 0.0 Canada
2022-06-21 20:08 2022.12.3.2 Model 3 SR (20XX) 3.0 New Zealand
2022-06-21 20:07 2022.16.1.1 Model Y AWD LR (20XX) 3.0 United States
2022-06-21 19:58 2022.12.3.16 Model Y SR (20XX) 3.0 United States
2022-06-21 19:57 2022.16.1.1 Model 3 AWD LR (20XX) 3.0 United States
2022-06-21 19:57 2022.16.1.1 Model 3 AWD LR (20XX) 3.0 United States
2022-06-21 19:51 2022.12.3.6 Model 3 Performance (20XX) 2.5 Russia
2022-06-21 19:40 2022.16.1.1 Model 3 Performance (20XX) 2.5 United States
2022-06-21 19:27 2022.12.3.12 Model Y AWD LR (20XX) 3.0 United States
2022-06-21 19:20 2022.12.3.2 Model S Plaid (20XX) 3.0 United States
2022-06-21 18:54 2022.16.1.1 Model Y AWD LR (20XX) 3.0 United States
2022-06-21 18:38 2022.12.3.2 Model 3 SR (20XX) 3.0 Australia
2022-06-21 18:37 2022.12.3.16 Model 3 AWD LR (20XX) 3.0 Canada
2022-06-21 18:03 2022.12.3.2 Model 3 SR (20XX) 3.0 United States
2022-06-21 17:59 2022.16.1.1 Model 3 AWD LR (20XX) 3.0 United States
2022-06-21 17:37 2022.12.3.12 Model 3 Performance (20XX) 3.0 United States
2022-06-21 17:35 2022.12.3.12 Model 3 Performance (20XX) 3.0 Canada
2022-06-21 17:34 2022.16.1.1 Model 3 AWD LR (20XX) 3.0 United States
2022-06-21 17:22 2022.12.3.2 Model Y (20XX) 2.5 United States
2022-06-21 17:17 2022.12.3.1 Model 3 Performance (20XX) 3.0 Bulgaria
2022-06-21 16:27 2022.12.3.2 Model 3 SR+ (20XX) 2.5 Australia
2022-06-21 16:18 2022.12.3.12 Model Y AWD LR (20XX) 3.0 Canada
2022-06-21 16:04 2022.12.3.2 Model 3 SR (20XX) 3.0 Canada
2022-06-21 16:02 2022.12.3.2 Model Y AWD LR (20XX) 2.5 Armenia
2022-06-21 16:00 2022.16.1.1 Model 3 AWD LR (20XX) 3.0 Australia
2022-06-21 15:46 2022.16.1.1 Model 3 SR+ (20XX) 3.0 Australia
2022-06-21 15:24 2022.12.3.2 Model 3 AWD LR (20XX) 2.5 Lithuania
2022-06-21 15:24 2022.12.3.12 Model Y AWD LR (20XX) 3.0 United States
2022-06-21 14:21 2022.16.1.1 Model 3 SR+ (20XX) 3.0 United States
2022-06-21 13:54 2022.16.1.1 Model 3 AWD LR (20XX) 3.0 United States
2022-06-21 13:50 2022.16.1.1 Model 3 AWD LR (20XX) 3.0 United States
2022-06-21 13:22 2022.12.3.12 Model Y Performance (20XX) 3.0 Canada
2022-06-21 13:11 2022.16.1.1 Model Y AWD LR (20XX) 3.0 Canada
2022-06-21 13:10 2022.12.3.16 Model 3 RWD LR (20XX) 3.0 United States
2022-06-21 12:35 2022.12.3.2 Model 3 SR+ (20XX) 3.0 Ukraine
2022-06-21 12:35 2022.12.3.2 Model Y Performance (20XX) 2.5 United States
2022-06-21 11:55 2022.12.3.6 Model 3 AWD LR (20XX) 3.0 Ukraine
2022-06-21 11:38 2022.12.3.16 Model X 100D (20XX) 3.0 United States
2022-06-21 11:20 2022.12.3.16 Model S 100D (20XX) 3.0 Canada
2022-06-21 11:04 2022.16.1.1 Model 3 SR+ (20XX) 3.0 Australia
2022-06-21 10:29 2022.12.3.2 Model 3 RWD LR (20XX) 2.5 Lithuania
2022-06-21 10:27 2022.12.3.2 Model 3 AWD LR (20XX) 3.0 Australia
2022-06-21 09:35 2022.12.3.2 Model 3 AWD LR (20XX) 2.5 Australia
2022-06-21 09:20 2022.12.3.2 Model 3 AWD LR (20XX) 3.0 Ukraine
2022-06-21 09:00 2022.16.1.1 Model 3 SR (20XX) 3.0 Australia
2022-06-21 08:43 2022.12.3.16 Model 3 Performance (20XX) 2.5 Ukraine
2022-06-21 08:36 2022.12.3.2 Model 3 SR (20XX) 2.5 Australia
2022-06-21 08:15 2022.16.1.1 Model Y AWD LR (20XX) 3.0 United States
2022-06-21 08:01 2022.12.3.7.5 Model 3 AWD LR (20XX) 3.0 Australia
2022-06-21 07:19 2022.16.1.1 Model 3 SR (20XX) 2.5 Australia
2022-06-21 07:07 2022.12.3.12 Model 3 Performance (20XX) 3.0 United States
2022-06-21 06:55 2022.12.3.2 Model 3 SR+ (20XX) 2.5 Australia
2022-06-21 06:21 2022.16.1.1 Model Y AWD LR (20XX) 3.0 United States
2022-06-21 06:16 2022.12.3.2 Model 3 SR+ (20XX) 3.0 Australia
2022-06-21 06:02 2022.16.1.1 Model 3 AWD LR (20XX) 3.0 United States
2022-06-21 05:51 2022.16.1.1 Model 3 AWD LR (20XX) 3.0 United States
2022-06-21 05:49 2022.12.3.2 Model 3 SR+ (20XX) 2.5 United States
2022-06-21 05:46 2022.16.1.1 Model Y AWD LR (20XX) 3.0 United States
2022-06-21 05:38 2022.12.3.12 Model 3 SR+ (20XX) 3.0 United States
2022-06-21 05:34 2022.12.3.16 Model 3 SR (20XX) 3.0 United States
2022-06-21 05:17 2022.16.1.1 Model 3 Performance (20XX) 3.0 United States
2022-06-21 05:14 2022.12.3.2 Model 3 SR (20XX) 3.0 United States
2022-06-21 04:52 2022.12.3.12 Model 3 AWD LR (20XX) 3.0 Canada
2022-06-21 04:47 2022.12.3.12 Model 3 AWD LR (20XX) 3.0 Canada
2022-06-21 04:41 2022.12.3.3 Model S Plaid (20XX) 3.0 United States
2022-06-21 04:41 2022.12.3.16 Model 3 AWD LR (20XX) 2.5 United States
2022-06-21 04:34 2022.16.1.1 Model 3 AWD LR (20XX) 3.0 United States
2022-06-21 04:23 2022.16.1.1 Model Y Performance (20XX) 3.0 United States
2022-06-21 04:11 2022.12.3.2 Model 3 AWD LR (20XX) 2.5 United States
2022-06-21 04:04 2022.12.3.16 Model X 75D (20XX) 0.0 United States
2022-06-21 03:53 2022.12.3.16 Model X 100D (20XX) 2.5 United States
2022-06-21 03:36 2022.12.3.12 Model 3 AWD LR (20XX) 3.0 United States
2022-06-21 03:02 2022.12.3.12 Model Y AWD LR (20XX) 3.0 United States
2022-06-21 02:58 2022.12.3.16 Model X Performance (20XX) 3.0 United States
2022-06-21 02:57 2022.12.3.12 Model Y AWD LR (20XX) 3.0 Mexico
2022-06-21 02:54 2022.12.3.3 Model S Long Range (20XX) 3.0 United States
2022-06-21 02:53 2022.12.3.16 Model X 75D (20XX) 3.0 United States
2022-06-21 02:43 2022.12.3.5 Model S Plaid (20XX) 2.5 United States
2022-06-21 02:36 2022.16.1.1 Model Y AWD LR (20XX) 2.5 Canada
2022-06-21 02:31 2022.12.3.16 Model S 90D (20XX) 2.0 United States
2022-06-21 02:26 2022.16.1.1 Model 3 SR+ (20XX) 3.0 Australia
2022-06-21 02:25 2022.16.1.1 Model Y Performance (20XX) 2.5 United States
2022-06-21 02:17 2022.12.3.16 Model 3 SR (20XX) 3.0 United States
2022-06-21 02:14 2022.16.1.1 Model 3 SR (20XX) 3.0 Australia
2022-06-21 02:13 2022.12.3.16 Model 3 Mid-Range (20XX) 2.5 United States
2022-06-21 02:10 2022.12.3.2 Model 3 AWD LR (20XX) 2.5 United States
2022-06-21 02:09 2022.12.3.12 Model Y Performance (20XX) 3.0 United States
2022-06-21 02:06 2022.12.3.2 Model 3 SR+ (20XX) 3.0 Australia
2022-06-21 01:57 2022.12.3.2 Model Y AWD LR (20XX) 2.5 United States
2022-06-21 01:46 2022.12.3.12 Model 3 Performance (20XX) 2.5 United States
2022-06-21 01:39 2022.12.3.16 Model 3 SR+ (20XX) 2.5 United States
2022-06-21 01:27 2022.12.3.16 Model 3 AWD LR (20XX) 3.0 Canada
2022-06-21 01:25 2022.16.1.1 Model 3 SR+ (20XX) 3.0 Australia
2022-06-21 01:21 2022.12.3.2 Model 3 SR+ (20XX) 3.0 United States
2022-06-21 01:20 2022.12.3.2 Model 3 Performance (20XX) 3.0 United States
2022-06-21 01:19 2022.12.3.2 Model 3 AWD LR (20XX) 3.0 United States
2022-06-21 01:19 2022.11.101.1 Model 3 Performance (20XX) 3.0 Australia
2022-06-21 01:13 2022.16.1.1 Model Y AWD LR (20XX) 3.0 Hong Kong SAR China
2022-06-21 01:10 2022.16.1.1 Model 3 AWD LR (20XX) 3.0 United States
2022-06-21 01:05 2022.12.3.16 Model X 90D (20XX) 3.0 United States
2022-06-21 00:53 2022.16.1.1 Model Y AWD LR (20XX) 3.0 United States
2022-06-21 00:41 2022.12.3.16 Model 3 AWD LR (20XX) 3.0 United States
2022-06-21 00:38 2022.12.3.16 Model X 75D (20XX) 0.0 United States
2022-06-21 00:27 2022.12.3.16 Model 3 Performance (20XX) 2.5 United States
2022-06-21 00:21 2022.16.1.1 Model 3 SR (20XX) 3.0 Australia
2022-06-21 00:16 2022.12.3.2 Model 3 SR (20XX) 3.0 Canada
2022-06-21 00:11 2022.16.1.1 Model 3 RWD LR (20XX) 3.0 United States
2022-06-21 00:05 2022.12.3.16 Model S 90D (20XX) 3.0 United States
2022-06-20 23:57 2022.12.3.2 Model 3 AWD LR (20XX) 3.0 Australia
2022-06-20 23:55 2022.16.1.1 Model 3 Performance (20XX) 2.5 Australia
2022-06-20 23:53 2022.16.1.1 Model 3 AWD LR (20XX) 3.0 Australia
2022-06-20 23:50 2022.12.3.2 Model 3 SR+ (20XX) 3.0 United States
2022-06-20 23:49 2022.16.1.1 Model 3 AWD LR (20XX) 3.0 United States
2022-06-20 23:48 2022.12.3.2 Model Y AWD LR (20XX) 3.0 United States
2022-06-20 23:41 2022.16.1.1 Model 3 SR+ (20XX) 3.0 Australia
2022-06-20 23:35 2022.16.1.1 Model Y Performance (20XX) 3.0 United States
2022-06-20 23:32 2022.12.3.2 Model Y AWD LR (20XX) 3.0 United States
2022-06-20 23:27 2022.16.1.1 Model 3 AWD LR (20XX) 3.0 United States
2022-06-20 23:21 2022.16.1.1 Model 3 SR (20XX) 2.5 Australia
2022-06-20 23:20 2022.16.1.1 Model Y AWD LR (20XX) 2.5 United States
2022-06-20 23:03 2022.16.1.1 Model 3 SR (20XX) 3.0 United States
2022-06-20 22:59 2022.16.1.1 Model 3 SR (20XX) 2.5 Australia
2022-06-20 22:54 2022.16.1.1 Model 3 AWD LR (20XX) 3.0 Australia
2022-06-20 22:53 2022.12.3.16 Model X 75D (20XX) 3.0 United States
2022-06-20 22:52 2022.12.3.3 Model S Plaid (20XX) 3.0 United States
2022-06-20 22:52 2022.12.3.3 Model X Long Range (20XX) 3.0 United States
2022-06-20 22:49 2022.16.1.1 Model Y AWD LR (20XX) 3.0 United States
2022-06-20 22:49 2022.16.1.1 Model 3 SR (20XX) 3.0 Australia
2022-06-20 22:48 2022.12.3.2 Model 3 SR (20XX) 2.5 New Zealand
2022-06-20 22:46 2022.12.3.2 Model 3 AWD LR (20XX) 3.0 United States
2022-06-20 22:38 2022.16.1.1 Model 3 AWD LR (20XX) 3.0 Australia
2022-06-20 22:36 2022.12.3.16 Model 3 RWD LR (20XX) 2.5 United States
2022-06-20 22:35 2022.16.1.1 Model 3 RWD LR (20XX) 3.0 United States
2022-06-20 22:31 2022.12.3.16 Model S 75D (20XX) 0.0 United States
2022-06-20 22:27 2022.12.3.16 Model S 75D (20XX) 3.0 United States
2022-06-20 22:26 2022.12.3.12 Model S Plaid (20XX) 3.0 United States
2022-06-20 22:19 2022.16.1.1 Model 3 SR+ (20XX) 3.0 Australia
2022-06-20 22:10 2022.16.1.1 Model 3 SR (20XX) 3.0 Australia
2022-06-20 22:10 2022.12.3.2 Model 3 Performance (20XX) 3.0 Australia
2022-06-20 21:56 2022.16.1.1 Model 3 SR+ (20XX) 2.5 Australia
2022-06-20 21:54 2022.16.1.1 Model 3 AWD LR (20XX) 3.0 Australia
2022-06-20 21:53 2022.12.3.12 Model X Long Range (20XX) 3.0 United States
2022-06-20 21:53 2022.16.1.1 Model 3 AWD LR (20XX) 3.0 Australia
2022-06-20 21:53 2022.16.1.1 Model 3 Performance (20XX) 3.0 United States
2022-06-20 21:51 2022.16.1.1 Model 3 AWD LR (20XX) 3.0 Australia
2022-06-20 21:41 2022.16.1.1 Model Y AWD LR (20XX) 2.5 United States
2022-06-20 21:37 2022.12.3.16 Model X 100D (20XX) 3.0 United States
2022-06-20 21:36 2022.8.3 Model X Performance (20XX) 3.0 United States
2022-06-20 21:32 2022.16.1.1 Model Y AWD LR (20XX) 3.0 Canada
2022-06-20 21:31 2022.16.1.1 Model 3 RWD LR (20XX) 2.5 United States
2022-06-20 21:30 2022.12.3.2 Model 3 SR+ (20XX) 3.0 Belarus
2022-06-20 21:27 2022.12.3.3 Model Y AWD LR (20XX) 3.0 United States
2022-06-20 21:21 2022.12.3.3 Model S Plaid (20XX) 3.0 United States
2022-06-20 21:10 2022.12.3.16 Model X 100D (20XX) 3.0 United States
2022-06-20 21:00 2022.12.3.16 Model S 75 (20XX) 3.0 United States
2022-06-20 20:57 2022.12.3.16 Model X 100D (20XX) 3.0 United States
2022-06-20 20:55 2022.12.3.16 Model 3 AWD LR (20XX) 2.5 United States
2022-06-20 20:55 2022.16.1.1 Model 3 AWD LR (20XX) 3.0 Australia
2022-06-20 20:50 2022.16.1.1 Model 3 SR+ (20XX) 3.0 Australia
2022-06-20 20:48 2022.16.1.1 Model 3 AWD LR (20XX) 3.0 Mexico
2022-06-20 20:45 2022.12.3.2 Model 3 AWD LR (20XX) 3.0 Australia
2022-06-20 20:42 2022.16.1.1 Model 3 SR (20XX) 2.5 Australia
2022-06-20 20:41 2022.16.1.1 Model Y AWD LR (20XX) 3.0 United States
2022-06-20 20:39 2022.16.1.1 Model Y Performance (20XX) 3.0 United States
2022-06-20 20:35 2022.16.1.1 Model Y AWD LR (20XX) 3.0 United States
2022-06-20 20:35 2022.16.1.1 Model 3 AWD LR (20XX) 2.5 Australia
2022-06-20 20:34 2022.12.3.2 Model 3 AWD LR (20XX) 2.5 Australia
2022-06-20 20:32 2022.12.3.2 Model 3 SR+ (20XX) 3.0 Australia
2022-06-20 20:30 2022.16.1.1 Model Y AWD LR (20XX) 3.0 United States
2022-06-20 20:30 2022.16.1.1 Model 3 SR (20XX) 2.5 Australia
2022-06-20 20:27 2022.12.3.2 Model 3 (20XX) 3.0 United States
2022-06-20 20:26 2022.12.3.2 Model S Long Range (20XX) 3.0 United States
2022-06-20 20:23 2022.12.3.2 Model 3 SR (20XX) 3.0 Australia
2022-06-20 20:20 2022.16.1.1 Model 3 SR+ (20XX) 2.5 Australia
2022-06-20 20:20 2022.16.1.1 Model Y AWD LR (20XX) 3.0 United States
2022-06-20 20:16 2022.16.1.1 Model Y AWD LR (20XX) 3.0 United States
2022-06-20 20:11 2022.12.3.16 Model X Performance (20XX) 3.0 United States
2022-06-20 20:10 2022.16.1.1 Model 3 SR (20XX) 3.0 Australia
2022-06-20 20:03 2022.16.1.1 Model Y AWD LR (20XX) 3.0 United States
2022-06-20 20:02 2022.12.3.2 Model 3 AWD LR (20XX) 3.0 United States
2022-06-20 20:01 2022.12.3.16 Model S 75D (20XX) 3.0 Canada
2022-06-20 19:53 2022.12.3.16 Model Y AWD LR (20XX) 3.0 United States
2022-06-20 19:50 2022.16.1.1 Model 3 SR+ (20XX) 2.5 Canada
2022-06-20 19:49 2022.16.1.1 Model X Long Range (20XX) 3.0 United States
2022-06-20 19:41 2022.12.3.2 Model 3 Performance (20XX) 3.0 United States
2022-06-20 19:39 2022.12.3.16 Model X 100D (20XX) 3.0 United States
2022-06-20 19:35 2022.16.1.1 Model Y AWD LR (20XX) 2.5 United States
2022-06-20 19:29 2022.12.3.16 Model X Long Range (20XX) 3.0 United States
2022-06-20 19:29 2022.16.1.1 Model Y AWD LR (20XX) 3.0 United States
2022-06-20 19:29 2022.12.3.16 Model X 100D (20XX) 3.0 United States
2022-06-20 19:28 2022.12.3.2 Model 3 Performance (20XX) 3.0 United States
2022-06-20 19:26 2022.12.3.16 Model X 100D (20XX) 3.0 United States
2022-06-20 19:25 2022.16.1.1 Model 3 AWD LR (20XX) 2.5 United States
2022-06-20 19:21 2022.16.1.1 Model Y AWD LR (20XX) 2.5 United States
2022-06-20 19:15 2022.12.3.16 Model X 100D (20XX) 3.0 United States
2022-06-20 19:14 2022.12.3.2 Model 3 AWD LR (20XX) 3.0 United States
2022-06-20 19:13 2022.16.1.1 Model 3 AWD LR (20XX) 3.0 United States
2022-06-20 19:13 2022.12.3.16 Model X Performance (20XX) 3.0 United States
2022-06-20 19:09 2022.16.1.1 Model S 90D (20XX) 0.0 United States
2022-06-20 19:08 2022.12.3.2 Model S Long Range (20XX) 3.0 United States
2022-06-20 19:07 2022.12.3.16 Model S 75D (20XX) 2.5 United States
2022-06-20 19:05 2022.16.1.1 Model 3 AWD LR (20XX) 3.0 United States
2022-06-20 19:04 2022.12.3.16 Model X Long Range (20XX) 3.0 United States
2022-06-20 19:03 2022.12.3.2 Model X 100D (20XX) 0.0 United States
2022-06-20 19:01 2022.12.3.16 Model S Performance (20XX) 3.0 United States
2022-06-20 19:00 2022.16.1.1 Model Y AWD LR (20XX) 3.0 United States
2022-06-20 18:56 2022.16.1.1 Model S P85 (20XX) 0.0 United States
2022-06-20 18:55 2022.16.1.1 Model 3 Performance (20XX) 2.5 Canada
2022-06-20 18:55 2022.12.3.5 Model S Plaid (20XX) 3.0 United States
2022-06-20 18:53 2022.12.3.16 Model S Long Range (20XX) 3.0 United States
2022-06-20 18:53 2022.16.1.1 Model 3 AWD LR (20XX) 3.0 United States
2022-06-20 18:52 2022.12.3.3 Model X Long Range (20XX) 3.0 United States
2022-06-20 18:51 2022.16.1.1 Model 3 AWD LR (20XX) 3.0 Canada
2022-06-20 18:47 2022.12.3.3 Model S Plaid (20XX) 3.0 United States
2022-06-20 18:46 2022.12.3.12 Model X Long Range (20XX) 3.0 United States
2022-06-20 18:46 2022.12.3.16 Model S Performance (20XX) 0.0 United States
2022-06-20 18:32 2022.16.1.1 Model Y AWD LR (20XX) 3.0 United States
2022-06-20 18:31 2022.16.1.1 Model 3 AWD LR (20XX) 3.0 United States
2022-06-20 18:26 2022.16.1.1 Model Y AWD LR (20XX) 2.5 United States
2022-06-20 18:22 2022.16.1.1 Model Y AWD LR (20XX) 3.0 United States
2022-06-20 18:19 2022.16.1.1 Model 3 SR+ (20XX) 3.0 United States
2022-06-20 18:18 2022.16.1.1 Model 3 AWD LR (20XX) 3.0 Canada
2022-06-20 17:25 2022.16.1.1 Model 3 AWD LR (20XX) 3.0 United States
2022-06-20 15:47 2022.16.1.1 Model S 85 (20XX) 0.0 United States
2022-06-20 15:33 2022.12.3.2 Model S P85D (20XX) 1.0 United States
2022-06-20 15:30 2022.16.1.1 Model S Performance (20XX) 2.5 United States
2022-06-20 12:03 2022.16.1.1 Model 3 Performance (20XX) 3.0 Australia
2022-06-20 09:34 2022.12.3.16 Model 3 Mid-Range (20XX) 2.5 United States
2022-06-20 08:10 2022.16.1.1 Model X 75D (20XX) 0.0 United States
2022-06-20 07:33 2022.16.1.1 Model 3 Performance (20XX) 2.5 Australia
2022-06-20 07:23 2022.16.1.1 Model X Long Range (20XX) 3.0 United States
2022-06-20 07:13 2022.16.1.1 Model Y Performance (20XX) 3.0 United States
2022-06-20 07:00 2022.16.1.1 Model 3 Performance (20XX) 2.5 Australia
2022-06-20 05:51 2022.12.3.2 Model 3 SR (20XX) 3.0 Australia
2022-06-20 05:03 2022.16.1.1 Model S 85 (20XX) 0.0 United States
2022-06-20 03:52 2022.16.1.1 Model Y AWD LR (20XX) 3.0 Canada
2022-06-20 02:25 2022.16.1.1 Model 3 AWD LR (20XX) 3.0 United States
2022-06-20 02:17 2022.16.1.1 Model Y AWD LR (20XX) 3.0 United States
2022-06-20 02:03 2022.12.3.2 Model S 75D (20XX) 3.0 United States
2022-06-19 22:16 2022.16.1.1 Model 3 SR+ (20XX) 3.0 United States
2022-06-19 22:13 2022.16.1.1 Model Y AWD LR (20XX) 3.0 United States
2022-06-19 21:05 2022.16.1.1 Model 3 RWD LR (20XX) 3.0 United States
2022-06-19 19:32 2022.16.1.1 Model S Plaid (20XX) 3.0 United States
2022-06-19 14:25 2022.16.1.1 Model 3 Performance (20XX) 3.0 United States
2022-06-19 10:06 2022.16.1.1 Model 3 SR (20XX) 3.0 Australia
2022-06-19 09:18 2022.16.1.1 Model 3 AWD LR (20XX) 2.5 Australia
2022-06-19 07:24 2022.16.1.1 Model S Long Range (20XX) 3.0 United States
2022-06-19 06:26 2022.16.1.1 Model Y AWD LR (20XX) 3.0 United States
2022-06-19 06:14 2022.16.1.1 Model 3 SR (20XX) 2.5 Taiwan
2022-06-19 04:30 2022.16.1.1 Model S 100D (20XX) 2.5 United States
2022-06-19 03:44 2022.16.1.1 Model 3 AWD LR (20XX) 3.0 United States
2022-06-19 02:37 2022.16.1.1 Model S 100D (20XX) 2.5 United States
2022-06-19 02:01 2022.16.1.1 Model 3 AWD LR (20XX) 2.5 Australia
2022-06-19 00:57 2022.12.3.2 Model 3 SR (20XX) 3.0 Australia
2022-06-18 23:04 2022.16.1.1 Model S 75D (20XX) 3.0 United States
2022-06-18 21:53 2022.12.3.2 Model 3 AWD LR (20XX) 3.0 United States
2022-06-18 20:30 2022.12.3.16 Model 3 RWD LR (20XX) 2.5 Moldova
2022-06-18 19:25 2022.16.1.1 Model 3 AWD LR (20XX) 3.0 Canada
2022-06-18 19:12 2022.16.1.1 Model 3 AWD LR (20XX) 3.0 United States
2022-06-18 19:12 2022.16.1.1 Model 3 SR+ (20XX) 2.5 United States
2022-06-18 17:58 2022.16.1.1 Model 3 AWD LR (20XX) 3.0 United States
2022-06-18 16:22 2022.16.1.1 Model 3 AWD LR (20XX) 2.5 Australia
2022-06-18 14:36 2022.16.1.1 Model X 100D (20XX) 3.0 Australia
2022-06-18 14:26 2022.12.3.2 Model 3 AWD LR (20XX) 2.5 Australia
2022-06-18 14:03 2022.16.1.1 Model 3 AWD LR (20XX) 3.0 Australia
2022-06-18 13:53 2022.16.1.1 Model 3 SR (20XX) 3.0 Australia
2022-06-18 13:21 2022.16.1.1 Model 3 SR (20XX) 3.0 Australia
2022-06-18 11:17 2022.16.1.1 Model 3 SR (20XX) 3.0 Australia
2022-06-18 11:16 2022.16.1.1 Model Y Performance (20XX) 3.0 United States
2022-06-18 10:23 2022.16.1.1 Model X 75D (20XX) 2.0 United States
2022-06-18 09:26 2022.16.1.1 Model 3 Mid-Range (20XX) 2.5 United States
2022-06-18 08:49 2022.16.1.1 Model 3 AWD LR (20XX) 2.5 United States
2022-06-18 08:45 2022.16.1.1 Model 3 AWD LR (20XX) 3.0 Taiwan
2022-06-18 08:41 2022.16.1.1 Model 3 Performance (20XX) 3.0 United States
2022-06-18 08:41 2022.16.1.1 Model 3 SR (20XX) 3.0 Australia
2022-06-18 08:31 2022.16.1.1 Model 3 AWD LR (20XX) 2.5 Australia
2022-06-18 08:30 2022.12.3.3 Model 3 AWD LR (20XX) 3.0 Canada
2022-06-18 08:23 2022.16.1.1 Model 3 AWD LR (20XX) 3.0 United States
2022-06-18 08:03 2022.16.1.1 Model 3 RWD LR (20XX) 3.0 United States
2022-06-18 07:56 2022.16.1.1 Model 3 AWD LR (20XX) 2.5 Australia
2022-06-18 07:33 2022.16.1.1 Model S 100D (20XX) 3.0 United States
2022-06-18 06:45 2022.16.1.1 Model 3 Performance (20XX) 3.0 United States
2022-06-18 06:45 2022.16.1.1 Model S P85D (20XX) 2.5 United States
2022-06-18 06:42 2022.16.1.1 Model S 75D (20XX) 3.0 United States
2022-06-18 06:39 2022.16.1.1 Model 3 SR (20XX) 3.0 Australia
2022-06-18 05:58 2022.16.1.1 Model 3 SR (20XX) 2.5 Australia
2022-06-18 05:55 2022.16.1.1 Model 3 AWD LR (20XX) 3.0 United States
2022-06-18 05:32 2022.4.5.16 Model 3 Performance (20XX) 3.0 Australia
2022-06-18 05:32 2022.16.1.1 Model 3 SR (20XX) 3.0 Australia
2022-06-18 05:28 2022.16.1.1 Model 3 Performance (20XX) 2.5 United States
2022-06-18 05:19 2022.12.3.3 Model 3 AWD LR (20XX) 3.0 Canada
2022-06-18 04:48 2022.16.1.1 Model 3 AWD LR (20XX) 3.0 Taiwan
2022-06-18 04:43 2022.16.1.1 Model 3 SR (20XX) 3.0 Australia
2022-06-18 04:31 2022.16.1.1 Model Y AWD LR (20XX) 3.0 United States
2022-06-18 04:22 2022.16.1.1 Model Y AWD LR (20XX) 3.0 United States
2022-06-18 04:15 2022.16.1.1 Model 3 AWD LR (20XX) 3.0 Australia
2022-06-18 04:00 2022.16.1.1 Model 3 SR (20XX) 3.0 Australia
2022-06-18 03:50 2022.16.1.1 Model 3 SR (20XX) 3.0 Australia
2022-06-18 03:46 2022.16.1.1 Model 3 SR+ (20XX) 2.5 Australia
2022-06-18 03:43 2022.16.1.1 Model Y AWD LR (20XX) 3.0 United States
2022-06-18 03:33 2022.16.1.1 Model 3 Performance (20XX) 3.0 Australia
2022-06-18 03:31 2022.16.1.1 Model 3 Performance (20XX) 3.0 Canada
2022-06-18 03:24 2022.16.1.1 Model 3 AWD LR (20XX) 3.0 United States
2022-06-18 03:22 2022.16.1.1 Model Y Performance (20XX) 3.0 United States
2022-06-18 03:18 2022.16.1.1 Model Y AWD LR (20XX) 3.0 United States
2022-06-18 02:56 2022.16.1.1 Model X Plaid (20XX) 3.0 United States
2022-06-18 02:56 2022.12.3.2 Model 3 Performance (20XX) 3.0 Australia
2022-06-18 02:55 2022.16.1.1 Model 3 SR (20XX) 3.0 Australia
2022-06-18 02:45 2022.16.1.1 Model 3 AWD LR (20XX) 3.0 United States
2022-06-18 02:40 2022.16.1.1 Model 3 SR+ (20XX) 3.0 Australia
2022-06-18 02:31 2022.16.1.1 Model S 90D (20XX) 3.0 United States
2022-06-18 02:29 2022.16.1.1 Model 3 SR (20XX) 2.5 Australia
2022-06-18 02:24 2022.16.1.1 Model 3 Performance (20XX) 3.0 Australia
2022-06-18 02:14 2022.16.1.1 Model 3 AWD LR (20XX) 3.0 United States
2022-06-18 01:57 2022.12.3.2 Model Y AWD LR (20XX) 3.0 United States
2022-06-18 01:42 2022.16.1.1 Model 3 SR+ (20XX) 3.0 Australia
2022-06-18 01:30 2022.16.1.1 Model 3 Performance (20XX) 3.0 Australia
2022-06-18 01:30 2022.16.1.1 Model 3 SR (20XX) 3.0 Australia
2022-06-18 01:27 2022.16.1.1 Model 3 AWD LR (20XX) 3.0 Australia
2022-06-18 01:23 2022.16.1.1 Model X Performance (20XX) 3.0 United States
2022-06-18 01:03 2022.16.1.1 Model 3 AWD LR (20XX) 3.0 United States
2022-06-18 00:50 2022.16.1.1 Model Y Performance (20XX) 3.0 United States
2022-06-18 00:48 2022.16.1.1 Model 3 SR (20XX) 3.0 Australia
2022-06-18 00:47 2022.12.3.2 Model Y Performance (20XX) 3.0 United States
2022-06-18 00:32 2022.16.1.1 Model S P85D (20XX) 1.0 Canada
2022-06-18 00:25 2022.12.3.2 Model Y Performance (20XX) 3.0 United States
2022-06-18 00:16 2022.16.1.1 Model Y Performance (20XX) 3.0 United States
2022-06-18 00:07 2022.16.1.1 Model 3 SR (20XX) 3.0 Australia
2022-06-18 00:02 2022.12.3.2 Model Y AWD LR (20XX) 3.0 United States
2022-06-17 23:49 2022.16.1.1 Model S 75 (20XX) 1.0 Australia
2022-06-17 23:41 2022.16.1.1 Model 3 AWD LR (20XX) 3.0 United States
2022-06-17 23:38 2022.16.1.1 Model 3 AWD LR (20XX) 3.0 Australia
2022-06-17 23:34 2022.16.1.1 Model 3 SR (20XX) 3.0 Australia
2022-06-17 23:27 2022.16.1.1 Model 3 SR+ (20XX) 3.0 Australia
2022-06-17 23:26 2022.16.1.1 Model 3 SR (20XX) 2.5 Australia
2022-06-17 23:13 2022.16.1.1 Model 3 SR (20XX) 3.0 Australia
2022-06-17 23:13 2022.16.1.1 Model 3 AWD LR (20XX) 3.0 Australia
2022-06-17 23:07 2022.16.1.1 Model 3 SR (20XX) 3.0 Australia
2022-06-17 23:06 2022.12.3.16 Model Y AWD LR (20XX) 3.0 Canada
2022-06-17 23:05 2022.16.1.1 Model S 100D (20XX) 3.0 United States
2022-06-17 22:55 2022.16.1.1 Model S 85D (20XX) 1.0 Australia
2022-06-17 22:48 2022.12.3.2 Model 3 SR (20XX) 3.0 Australia
2022-06-17 22:44 2022.16.1.1 Model 3 AWD LR (20XX) 3.0 United States
2022-06-17 22:38 2022.16.1.1 Model 3 SR+ (20XX) 3.0 Australia
2022-06-17 22:37 2022.16.1.1 Model 3 SR (20XX) 3.0 Australia
2022-06-17 22:35 2022.16.1.1 Model 3 SR (20XX) 3.0 Australia
2022-06-17 22:28 2022.16.1.1 Model 3 SR (20XX) 2.5 Australia
2022-06-17 22:23 2022.12.3.2 Model 3 SR (20XX) 2.5 Australia
2022-06-17 22:22 2022.16.1.1 Model Y AWD LR (20XX) 0.0 United States
2022-06-17 22:19 2022.16.1.1 Model 3 AWD LR (20XX) 2.5 Australia
2022-06-17 22:17 2022.16.1.1 Model 3 SR+ (20XX) 3.0 Australia
2022-06-17 22:15 2022.16.1.1 Model Y AWD LR (20XX) 3.0 United States
2022-06-17 22:13 2022.16.1.1 Model 3 AWD LR (20XX) 3.0 United States
2022-06-17 22:09 2022.16.1.1 Model 3 AWD LR (20XX) 3.0 Australia
2022-06-17 22:09 2022.12.3.2 Model 3 SR (20XX) 3.0 United States
2022-06-17 22:09 2022.12.3.2 Model Y AWD LR (20XX) 3.0 United States
2022-06-17 22:05 2022.12.3.3 Model 3 AWD LR (20XX) 3.0 United States
2022-06-17 22:04 2022.16.1.1 Model 3 AWD LR (20XX) 3.0 Australia
2022-06-17 22:04 2022.16.1.1 Model S 70D (20XX) 1.0 Australia
2022-06-17 21:58 2022.16.1.1 Model 3 AWD LR (20XX) 3.0 Australia
2022-06-17 21:54 2022.16.1.1 Model 3 SR+ (20XX) 3.0 Australia
2022-06-17 21:53 2022.16.1.1 Model 3 SR (20XX) 3.0 United States
2022-06-17 21:53 2022.16.1.1 Model S P85+ (20XX) 0.0 United States
2022-06-17 21:50 2022.16.1.1 Model 3 AWD LR (20XX) 3.0 Australia
2022-06-17 21:49 2022.16.1.1 Model 3 SR (20XX) 2.5 Australia
2022-06-17 21:48 2022.16.1.1 Model 3 AWD LR (20XX) 3.0 United States
2022-06-17 21:42 2022.16.1.1 Model 3 AWD LR (20XX) 3.0 United States
2022-06-17 21:38 2022.16.1.1 Model Y AWD LR (20XX) 3.0 United States
2022-06-17 21:36 2022.12.3.16 Model Y AWD LR (20XX) 3.0 Canada
2022-06-17 21:22 2022.16.1.1 Model 3 SR (20XX) 3.0 United States
2022-06-17 20:14 2022.16.1.1 Model Y Performance (20XX) 3.0 United States
2022-06-17 20:13 2022.16.1.1 Model 3 AWD LR (20XX) 3.0 United States
2022-06-17 19:10 2022.16.1.1 Model S 75D (20XX) 2.5 Ukraine
2022-06-17 16:51 2022.16.1.1 Model Y AWD LR (20XX) 3.0 United States
2022-06-17 16:02 2022.16.1.1 Model 3 SR+ (20XX) 3.0 Australia
2022-06-17 15:43 2022.16.1.1 Model 3 Performance (20XX) 2.5 United States
2022-06-17 15:38 2022.16.1.1 Model S 75D (20XX) 2.5 United States
2022-06-17 15:06 2022.16.1.1 Model 3 SR (20XX) 3.0 United States
2022-06-17 14:07 2022.16.1.1 Model 3 Performance (20XX) 3.0 Australia
2022-06-17 13:35 2022.16.1.1 Model 3 SR (20XX) 3.0 Australia
2022-06-17 13:20 2022.16.1.1 Model 3 AWD LR (20XX) 3.0 Australia
2022-06-17 12:24 2022.16.1.1 Model S Long Range (20XX) 3.0 United States
2022-06-17 11:34 2022.16.1.1 Model 3 SR (20XX) 3.0 Australia
2022-06-17 11:12 2022.12.3.16 Model 3 Performance (20XX) 3.0 Australia
2022-06-17 10:48 2022.16.1.1 Model 3 SR (20XX) 3.0 Australia
2022-06-17 10:18 2022.12.3.16 Model 3 AWD LR (20XX) 3.0 New Zealand
2022-06-17 10:13 2022.16.1.1 Model S Long Range (20XX) 3.0 United States
2022-06-17 09:43 2022.16.1.1 Model 3 SR (20XX) 3.0 Australia
2022-06-17 08:51 2022.16.1.1 Model 3 SR (20XX) 3.0 Australia
2022-06-17 08:34 2022.16.1.1 Model 3 Performance (20XX) 3.0 United States
2022-06-17 08:26 2022.16.1.1 Model 3 SR (20XX) 3.0 Australia
2022-06-17 07:38 2022.16.1.1 Model Y Performance (20XX) 3.0 United States
2022-06-17 07:23 2022.16.1.1 Model 3 AWD LR (20XX) 3.0 Australia
2022-06-17 07:19 2022.16.1.1 Model 3 SR (20XX) 2.5 United States
2022-06-17 07:10 2022.16.1.1 Model 3 Performance (20XX) 3.0 Australia
2022-06-17 06:48 2022.16.1.1 Model Y AWD LR (20XX) 2.5 United States
2022-06-17 06:32 2022.16.1.1 Model S Performance (20XX) 0.0 United States
2022-06-17 06:29 2022.16.1.1 Model 3 AWD LR (20XX) 3.0 United States
2022-06-17 06:23 2022.16.1.1 Model 3 AWD LR (20XX) 3.0 Canada
2022-06-17 05:42 2022.16.1.1 Model 3 AWD LR (20XX) 2.5 Australia
2022-06-17 05:21 2022.16.1.1 Model 3 AWD LR (20XX) 3.0 United States
2022-06-17 05:13 2022.16.1.1 Model 3 Performance (20XX) 3.0 United States
2022-06-17 04:55 2022.16.1.1 Model 3 SR (20XX) 3.0 Australia
2022-06-17 04:33 2022.16.1.1 Model 3 SR (20XX) 3.0 Australia
2022-06-17 03:58 2022.12.3.16 Model 3 Performance (20XX) 3.0 Canada
2022-06-17 03:46 2022.16.1.1 Model 3 SR (20XX) 3.0 Australia
2022-06-17 03:37 2022.16.1.1 Model Y AWD LR (20XX) 3.0 United States
2022-06-17 03:23 2022.16.1.1 Model X Long Range (20XX) 3.0 United States
2022-06-17 03:14 2022.16.1.1 Model Y AWD LR (20XX) 3.0 United States
2022-06-17 03:10 2022.16.1.1 Model 3 Performance (20XX) 3.0 United States
2022-06-17 03:09 2022.16.1.1 Model X Performance (20XX) 3.0 New Zealand
2022-06-17 02:55 2022.16.1.1 Model 3 Performance (20XX) 3.0 Australia
2022-06-17 02:52 2022.16.1.1 Model Y AWD LR (20XX) 3.0 United States
2022-06-17 02:50 2022.16.1.1 Model X Long Range (20XX) 3.0 United States
2022-06-17 02:49 2022.16.1.1 Model S Long Range (20XX) 3.0 United States
2022-06-17 02:44 2022.16.1.1 Model 3 AWD LR (20XX) 3.0 Canada
2022-06-17 02:40 2022.16.1.1 Model S 75D (20XX) 0.0 United States
2022-06-17 02:34 2022.16.1.1 Model X 100D (20XX) 2.5 United States
2022-06-17 02:32 2022.16.1.1 Model Y AWD LR (20XX) 3.0 United States
2022-06-17 02:25 2022.16.1.1 Model S Long Range (20XX) 3.0 United States
2022-06-17 02:25 2022.16.1.1 Model Y AWD LR (20XX) 3.0 United States
2022-06-17 02:25 2022.16.1.1 Model S Long Range (20XX) 3.0 United States
2022-06-17 02:10 2022.16.1.1 Model S 100D (20XX) 3.0 United States
2022-06-17 02:08 2022.16.1.1 Model X Long Range (20XX) 3.0 United States
2022-06-17 02:04 2022.12.3.16 Model 3 Performance (20XX) 3.0 Australia
2022-06-17 01:48 2022.16.1.1 Model 3 AWD LR (20XX) 3.0 United States
2022-06-17 01:44 2022.16.1.1 Model 3 Performance (20XX) 3.0 United States
2022-06-17 01:41 2022.16.1.1 Model S Long Range (20XX) 3.0 United States
2022-06-17 01:36 2022.16.1.1 Model 3 SR (20XX) 3.0 Canada
2022-06-17 01:21 2022.16.1.1 Model S 75D (20XX) 3.0 Russia
2022-06-17 01:18 2022.16.1.1 Model Y AWD LR (20XX) 3.0 United States
2022-06-17 01:14 2022.16.1.1 Model 3 AWD LR (20XX) 3.0 United States
2022-06-17 01:05 2022.16.1.1 Model X Plaid (20XX) 3.0 United States
2022-06-17 01:00 2022.16.1.1 Model X Plaid (20XX) 3.0 United States
2022-06-17 00:59 2022.16.1.1 Model 3 SR (20XX) 3.0 Australia
2022-06-17 00:59 2022.16.1.1 Model 3 SR+ (20XX) 3.0 Australia
2022-06-17 00:58 2022.16.1.1 Model 3 AWD LR (20XX) 3.0 Australia
2022-06-17 00:56 2022.16.1.1 Model X 100D (20XX) 2.5 United States
2022-06-17 00:49 2022.16.1.1 Model 3 Performance (20XX) 3.0 United States
2022-06-17 00:48 2022.16.1.1 Model S Performance (20XX) 3.0 United States
2022-06-17 00:41 2022.16.1.1 Model S Long Range (20XX) 3.0 Canada
2022-06-17 00:40 2022.16.1.1 Model Y AWD LR (20XX) 3.0 United States
2022-06-17 00:39 2022.16.1.1 Model 3 Performance (20XX) 2.5 United States
2022-06-17 00:38 2022.16.1.1 Model S Long Range (20XX) 2.5 United States
2022-06-17 00:36 2022.16.1.1 Model S Plaid (20XX) 3.0 United States
2022-06-17 00:35 2022.16.1.1 Model 3 SR+ (20XX) 3.0 Australia
2022-06-17 00:34 2022.16.1.1 Model 3 SR+ (20XX) 3.0 Australia
2022-06-17 00:33 2022.16.1.1 Model 3 AWD LR (20XX) 3.0 Australia
2022-06-17 00:32 2022.12.3.16 Model 3 SR (20XX) 3.0 Australia
2022-06-17 00:32 2022.16.1.1 Model S Long Range (20XX) 3.0 United States
2022-06-17 00:29 2022.16.1.1 Model Y Performance (20XX) 3.0 United States
2022-06-17 00:28 2022.12.3.16 Model X 100D (20XX) 0.0 United States
2022-06-17 00:28 2022.16.1.1 Model Y Performance (20XX) 3.0 United States
2022-06-17 00:23 2022.16.1.1 Model 3 AWD LR (20XX) 3.0 United States
2022-06-17 00:21 2022.16.1.1 Model S Long Range (20XX) 3.0 Canada
2022-06-17 00:21 2022.16.1.1 Model S 100D (20XX) 3.0 United States
2022-06-17 00:21 2022.16.1.1 Model 3 SR+ (20XX) 3.0 Australia
2022-06-17 00:19 2022.16.1.1 Model X 100D (20XX) 3.0 Australia
2022-06-17 00:19 2022.16.1.1 Model S Long Range (20XX) 3.0 United States
2022-06-17 00:19 2022.16.1.1 Model 3 Performance (20XX) 3.0 Australia
2022-06-17 00:14 2022.12.3.16 Model 3 RWD LR (20XX) 3.0 United States
2022-06-17 00:13 2022.16.1.1 Model 3 SR (20XX) 3.0 Australia
2022-06-17 00:13 2022.16.1.1 Model 3 SR (20XX) 3.0 Australia
2022-06-17 00:10 2022.12.3.16 Model 3 RWD LR (20XX) 3.0 United States
2022-06-17 00:10 2022.16.1.1 Model 3 SR (20XX) 3.0 Australia
2022-06-17 00:10 2022.16.1.1 Model Y AWD LR (20XX) 3.0 United States
2022-06-17 00:08 2022.16.1.1 Model 3 SR (20XX) 3.0 Australia
2022-06-17 00:08 2022.16.1.1 Model 3 AWD LR (20XX) 3.0 Australia
2022-06-17 00:08 2022.16.1.1 Model 3 AWD LR (20XX) 3.0 New Zealand
2022-06-17 00:07 2022.16.1.1 Model 3 AWD LR (20XX) 3.0 Australia
2022-06-17 00:05 2022.16.1.1 Model S Long Range (20XX) 3.0 United States
2022-06-17 00:05 2022.16.1.1 Model 3 SR (20XX) 3.0 Australia
2022-06-17 00:04 2022.16.1.1 Model S Long Range (20XX) 3.0 United States
2022-06-17 00:03 2022.16.1.1 Model S Long Range (20XX) 3.0 United States
2022-06-16 23:58 2022.12.3.16 Model 3 RWD LR (20XX) 2.5 United States
2022-06-16 23:52 2022.16.1.1 Model 3 AWD LR (20XX) 3.0 United States
2022-06-16 23:51 2021.44.30.7 Model 3 SR+ (20XX) 2.5 United States
2022-06-16 23:51 2022.16.1.1 Model 3 Performance (20XX) 3.0 Australia
2022-06-16 19:35 2022.16.1.1 Model Y AWD LR (20XX) 3.0 United States
2022-06-16 14:14 2022.16.1.1 Model S Plaid (20XX) 3.0 United States
2022-06-16 13:38 2022.16.1.1 Model Y AWD LR (20XX) 3.0 United States
2022-06-16 12:12 2022.16.1.1 Model S 75D (20XX) 3.0 Australia
2022-06-16 11:08 2022.16.1.1 Model Y AWD LR (20XX) 3.0 United States
2022-06-16 09:07 2022.16.1.1 Model S Performance (20XX) 3.0 Australia
2022-06-16 08:05 2022.16.1.1 Model 3 AWD LR (20XX) 3.0 Australia
2022-06-16 07:39 2022.16.1.1 Model 3 SR (20XX) 3.0 Australia
2022-06-16 07:09 2022.16.1.1 Model S Long Range (20XX) 3.0 United States
2022-06-16 05:09 2022.16.1.1 Model 3 AWD LR (20XX) 3.0 Australia
2022-06-16 03:35 2022.16.1.1 Model 3 AWD LR (20XX) 3.0 United States
2022-06-16 02:36 2022.16.1.1 Model Y AWD LR (20XX) 3.0 United States
2022-06-16 02:13 2022.16.1.1 Model S Long Range (20XX) 3.0 United States
2022-06-16 01:56 2022.16.1.1 Model 3 SR (20XX) 3.0 Australia
2022-06-16 01:55 2022.16.1.1 Model 3 AWD LR (20XX) 3.0 Australia
2022-06-16 01:45 2022.16.1.1 Model X Long Range (20XX) 3.0 United States
2022-06-16 01:38 2022.16.1.1 Model 3 SR (20XX) 3.0 Canada
2022-06-16 01:27 2022.16.1.1 Model Y AWD LR (20XX) 3.0 United States
2022-06-16 01:26 2022.16.1.1 Model 3 SR (20XX) 2.5 New Zealand
2022-06-16 01:21 2022.16.1.1 Model S Plaid (20XX) 3.0 United States
2022-06-16 01:05 2022.16.1.1 Model 3 AWD LR (20XX) 3.0 United States
2022-06-16 01:04 2022.16.1.1 Model 3 Performance (20XX) 3.0 Australia
2022-06-16 00:53 2022.16.1.1 Model Y AWD LR (20XX) 3.0 United States
2022-06-16 00:52 2022.16.1.1 Model Y AWD LR (20XX) 3.0 United States
2022-06-16 00:45 2022.16.1.1 Model S Long Range (20XX) 3.0 Canada
2022-06-16 00:37 2022.16.1.1 Model 3 Performance (20XX) 3.0 United States
2022-06-16 00:36 2022.16.1.1 Model S Plaid (20XX) 3.0 United States
2022-06-16 00:31 2022.16.1.1 Model 3 Performance (20XX) 3.0 United States
2022-06-16 00:27 2022.16.1.1 Model S Long Range (20XX) 3.0 United States
2022-06-16 00:26 2022.16.1.1 Model X Performance (20XX) 3.0 United States
2022-06-16 00:16 2022.16.1.1 Model S 75 (20XX) 3.0 Australia
2022-06-16 00:15 2022.16.1.1 Model Y Performance (20XX) 3.0 United States
2022-06-16 00:11 2022.16.1.1 Model Y Performance (20XX) 3.0 United States
2022-06-16 00:08 2022.16.1.1 Model 3 AWD LR (20XX) 3.0 United States
2022-06-16 00:08 2022.16.1.1 Model X Plaid (20XX) 3.0 United States
2022-06-16 00:07 2022.16.1.1 Model Y AWD LR (20XX) 3.0 United States
2022-06-16 00:00 2022.16.1.1 Model Y Performance (20XX) 3.0 Canada